This is the latest recevied weather packets stored in our database for station/object KD8JAM. If no packets are shown the sender has not sent any weather packets the latest 10 day(s).
| Time | Temp. | Humidity | Pressure | Rain* | Wind** | Luminosity | Snow |
|---|---|---|---|---|---|---|---|
| 1777845944 | 12.78° C | 46% | 1002.4 hPa | 0 mm | - | 266 W/m² | - |
| 1777845641 | 12.78° C | 46% | 1002.2 hPa | 0 mm | - | 290 W/m² | - |
| 1777845338 | 12.78° C | 46% | 1002.4 hPa | 0 mm | - | 252 W/m² | - |
| 1777845035 | 12.78° C | 47% | 1002.5 hPa | 0 mm | - | 268 W/m² | - |
| 1777844733 | 12.78° C | 47% | 1002.3 hPa | 0 mm | - | 273 W/m² | - |
| 1777844429 | 12.78° C | 50% | 1002.2 hPa | 0 mm | - | 459 W/m² | - |
| 1777844128 | 12.22° C | 51% | 1002.5 hPa | 0 mm | - | 389 W/m² | - |
| 1777843824 | 12.78° C | 53% | 1002.4 hPa | 0 mm | - | 275 W/m² | - |
| 1777843521 | 12.78° C | 54% | 1002.4 hPa | 0 mm | - | 352 W/m² | - |
| 1777843219 | 12.78° C | 56% | 1002.5 hPa | 0 mm | - | 414 W/m² | - |
| 1777842916 | 12.78° C | 56% | 1002.1 hPa | 0 mm | - | 351 W/m² | - |
| 1777842611 | 13.33° C | 58% | 1002.5 hPa | 0 mm | - | 380 W/m² | - |
| 1777842308 | 12.78° C | 60% | 1002.3 hPa | 0 mm | - | 447 W/m² | - |
| 1777842003 | 13.33° C | 62% | 1002.4 hPa | 0 mm | - | 385 W/m² | - |
| 1777841700 | 13.33° C | 63% | 1002.4 hPa | 0 mm | - | 450 W/m² | - |
| 1777841396 | 12.78° C | 65% | 1002.4 hPa | 0 mm | - | 527 W/m² | - |
| 1777841094 | 12.78° C | 66% | 1002.5 hPa | 0 mm | - | 383 W/m² | - |
| 1777840790 | 12.78° C | 67% | 1002.5 hPa | 0 mm | - | 413 W/m² | - |
| 1777840488 | 13.33° C | 67% | 1002.6 hPa | 0 mm | - | 391 W/m² | - |
| 1777840184 | 13.89° C | 68% | 1002.7 hPa | 0 mm | - | 560 W/m² | - |
| 1777839883 | 13.89° C | 69% | 1002.8 hPa | 0 mm | - | 498 W/m² | - |
| 1777839581 | 13.89° C | 69% | 1002.6 hPa | 0 mm | - | 494 W/m² | - |
| 1777839278 | 13.89° C | 69% | 1002.5 hPa | 0 mm | - | 513 W/m² | - |
| 1777838976 | 13.89° C | 69% | 1002.6 hPa | 0 mm | - | 622 W/m² | - |
| 1777838672 | 13.89° C | 68% | 1002.7 hPa | 0 mm | - | 521 W/m² | - |
* Rain latest hour (hover to see other rain measurements)
** Current wind speed in m/s (hover to see current wind gust speed)